Time,TemperatureF,DewpointF,PressureIn,WindDirection,WindDirectionDegrees,WindSpeedMPH,WindSpeedGustMPH,Humidity,HourlyPrecipIn,Conditions,Clouds,dailyrainin,SoftwareType,DateUTC
2013-06-30 00:01:00,75.6,55.2,0.00,WNW,290,3.9,6.5,49,0.00,,,0.00,WUHU216CR1000,2013-06-30 07:01:00,
2013-06-30 00:06:00,75.0,55.4,0.00,WNW,289,4.0,7.3,51,0.00,,,0.00,WUHU216CR1000,2013-06-30 07:06:00,
2013-06-30 00:11:00,75.0,55.4,0.00,WNW,289,4.0,7.3,51,0.00,,,0.00,WUHU216CR1000,2013-06-30 07:11:00,
2013-06-30 00:16:00,74.7,55.1,0.00,WNW,288,4.6,7.9,51,0.00,,,0.00,WUHU216CR1000,2013-06-30 07:16:00,
2013-06-30 00:21:00,74.7,55.1,0.00,WNW,288,4.6,7.9,51,0.00,,,0.00,WUHU216CR1000,2013-06-30 07:21:00,
2013-06-30 00:26:00,74.7,55.1,0.00,WNW,288,4.6,7.9,51,0.00,,,0.00,WUHU216CR1000,2013-06-30 07:26:00,
2013-06-30 00:31:00,75.5,54.5,0.00,WNW,286,5.3,9.2,48,0.00,,,0.00,WUHU216CR1000,2013-06-30 07:31:00,
2013-06-30 00:36:00,75.5,54.5,0.00,WNW,286,5.3,9.2,48,0.00,,,0.00,WUHU216CR1000,2013-06-30 07:36:00,
2013-06-30 00:41:00,75.5,54.5,0.00,WNW,286,5.3,9.2,48,0.00,,,0.00,WUHU216CR1000,2013-06-30 07:41:00,
2013-06-30 00:46:00,74.5,54.5,0.00,WNW,301,2.5,9.2,50,0.00,,,0.00,WUHU216CR1000,2013-06-30 07:46:00,
2013-06-30 00:51:00,74.5,54.5,0.00,WNW,301,2.5,4.7,50,0.00,,,0.00,WUHU216CR1000,2013-06-30 07:51:00,
2013-06-30 00:56:00,74.5,54.5,0.00,WNW,301,2.5,4.7,50,0.00,,,0.00,WUHU216CR1000,2013-06-30 07:56:00,
2013-06-30 01:01:00,73.9,54.3,0.00,WNW,296,3.1,7.7,50,0.00,,,0.00,WUHU216CR1000,2013-06-30 08:01:00,
2013-06-30 01:06:00,73.9,54.3,0.00,WNW,296,3.1,7.7,50,0.00,,,0.00,WUHU216CR1000,2013-06-30 08:06:00,
2013-06-30 01:11:00,73.9,54.3,0.00,WNW,296,3.1,7.7,50,0.00,,,0.00,WUHU216CR1000,2013-06-30 08:11:00,
2013-06-30 01:16:00,73.7,54.2,0.00,NW,314,2.4,7.7,51,0.00,,,0.00,WUHU216CR1000,2013-06-30 08:16:00,
2013-06-30 01:21:00,73.7,54.2,0.00,NW,314,2.4,5.8,51,0.00,,,0.00,WUHU216CR1000,2013-06-30 08:21:00,
2013-06-30 01:26:00,73.7,54.2,0.00,NW,314,2.4,5.8,51,0.00,,,0.00,WUHU216CR1000,2013-06-30 08:26:00,
2013-06-30 01:31:00,72.7,54.1,0.00,NW,305,3.1,6.9,52,0.00,,,0.00,WUHU216CR1000,2013-06-30 08:31:00,
2013-06-30 01:36:00,72.7,54.1,0.00,NW,305,3.1,6.9,52,0.00,,,0.00,WUHU216CR1000,2013-06-30 08:36:00,
2013-06-30 01:41:00,72.7,54.1,0.00,NW,305,3.1,6.9,52,0.00,,,0.00,WUHU216CR1000,2013-06-30 08:41:00,
2013-06-30 01:46:00,72.9,54.1,0.00,WNW,291,3.0,6.9,52,0.00,,,0.00,WUHU216CR1000,2013-06-30 08:46:00,
2013-06-30 01:51:00,72.9,54.1,0.00,WNW,291,3.0,6.4,52,0.00,,,0.00,WUHU216CR1000,2013-06-30 08:51:00,
2013-06-30 01:56:00,72.9,54.1,0.00,WNW,291,3.0,6.4,52,0.00,,,0.00,WUHU216CR1000,2013-06-30 08:56:00,
2013-06-30 02:01:00,72.1,53.9,0.00,NNW,327,1.6,6.4,53,0.00,,,0.00,WUHU216CR1000,2013-06-30 09:01:00,
2013-06-30 02:06:00,72.1,53.9,0.00,NNW,327,1.6,3.5,53,0.00,,,0.00,WUHU216CR1000,2013-06-30 09:06:00,
2013-06-30 02:11:00,72.1,53.9,0.00,NNW,327,1.6,3.5,53,0.00,,,0.00,WUHU216CR1000,2013-06-30 09:11:00,
2013-06-30 02:16:00,71.5,53.5,0.00,North,4,2.3,3.9,53,0.00,,,0.00,WUHU216CR1000,2013-06-30 09:16:00,
2013-06-30 02:21:00,71.5,53.5,0.00,North,4,2.3,3.9,53,0.00,,,0.00,WUHU216CR1000,2013-06-30 09:21:00,
2013-06-30 02:26:00,71.5,53.5,0.00,North,4,2.3,3.9,53,0.00,,,0.00,WUHU216CR1000,2013-06-30 09:26:00,
2013-06-30 02:31:00,70.9,54.0,0.00,NW,325,1.1,4.3,55,0.00,,,0.00,WUHU216CR1000,2013-06-30 09:31:00,
2013-06-30 02:36:00,70.9,54.0,0.00,NW,325,1.1,4.3,55,0.00,,,0.00,WUHU216CR1000,2013-06-30 09:36:00,
2013-06-30 02:41:00,70.9,54.0,0.00,NW,325,1.1,4.3,55,0.00,,,0.00,WUHU216CR1000,2013-06-30 09:41:00,
2013-06-30 02:46:00,70.4,53.7,0.00,NW,312,1.2,4.3,56,0.00,,,0.00,WUHU216CR1000,2013-06-30 09:46:00,
2013-06-30 02:51:00,70.4,53.7,0.00,NW,312,1.2,3.4,56,0.00,,,0.00,WUHU216CR1000,2013-06-30 09:51:00,
2013-06-30 02:56:00,70.4,53.7,0.00,NW,312,1.2,3.4,56,0.00,,,0.00,WUHU216CR1000,2013-06-30 09:56:00,
2013-06-30 03:01:00,70.2,53.9,0.00,NW,325,1.0,3.4,56,0.00,,,0.00,WUHU216CR1000,2013-06-30 10:01:00,
2013-06-30 03:06:00,70.2,53.9,0.00,NW,325,1.0,3.2,56,0.00,,,0.00,WUHU216CR1000,2013-06-30 10:06:00,
2013-06-30 03:11:00,70.2,53.9,0.00,NW,325,1.0,3.2,56,0.00,,,0.00,WUHU216CR1000,2013-06-30 10:11:00,
2013-06-30 03:16:00,70.9,53.6,0.00,NW,325,1.7,3.6,54,0.00,,,0.00,WUHU216CR1000,2013-06-30 10:16:00,
2013-06-30 03:21:00,70.9,53.6,0.00,NW,325,1.7,3.6,54,0.00,,,0.00,WUHU216CR1000,2013-06-30 10:21:00,
2013-06-30 03:26:00,70.9,53.6,0.00,NW,325,1.7,3.6,54,0.00,,,0.00,WUHU216CR1000,2013-06-30 10:26:00,
2013-06-30 03:31:00,72.0,53.6,0.00,NNW,332,1.3,4.3,52,0.00,,,0.00,WUHU216CR1000,2013-06-30 10:31:00,
2013-06-30 03:36:00,72.0,53.6,0.00,NNW,332,1.3,4.3,52,0.00,,,0.00,WUHU216CR1000,2013-06-30 10:36:00,
2013-06-30 03:41:00,72.0,53.6,0.00,NNW,332,1.3,4.3,52,0.00,,,0.00,WUHU216CR1000,2013-06-30 10:41:00,
2013-06-30 03:46:00,68.6,56.6,0.00,SE,124,2.0,4.5,66,0.00,,,0.00,WUHU216CR1000,2013-06-30 10:46:00,
2013-06-30 03:51:00,68.6,56.6,0.00,SE,124,2.0,4.5,66,0.00,,,0.00,WUHU216CR1000,2013-06-30 10:51:00,
2013-06-30 03:56:00,68.6,56.6,0.00,SE,124,2.0,4.5,66,0.00,,,0.00,WUHU216CR1000,2013-06-30 10:56:00,
2013-06-30 04:01:00,64.9,57.7,0.00,ESE,111,2.8,5.9,77,0.00,,,0.00,WUHU216CR1000,2013-06-30 11:01:00,
2013-06-30 04:06:00,64.9,57.7,0.00,ESE,111,2.8,5.9,77,0.00,,,0.00,WUHU216CR1000,2013-06-30 11:06:00,
2013-06-30 04:11:00,64.9,57.7,0.00,ESE,111,2.8,5.9,77,0.00,,,0.00,WUHU216CR1000,2013-06-30 11:11:00,
2013-06-30 04:16:00,63.9,57.6,0.00,ESE,104,1.6,5.9,80,0.00,,,0.00,WUHU216CR1000,2013-06-30 11:16:00,
2013-06-30 04:21:00,63.9,57.6,0.00,ESE,104,1.6,4.4,80,0.00,,,0.00,WUHU216CR1000,2013-06-30 11:21:00,
2013-06-30 04:26:00,63.9,57.6,0.00,ESE,104,1.6,4.4,80,0.00,,,0.00,WUHU216CR1000,2013-06-30 11:26:00,
2013-06-30 04:31:00,63.7,57.6,0.00,East,92,0.2,4.4,80,0.00,,,0.00,WUHU216CR1000,2013-06-30 11:31:00,
2013-06-30 04:36:00,63.7,57.6,0.00,East,92,0.2,2.4,80,0.00,,,0.00,WUHU216CR1000,2013-06-30 11:36:00,
2013-06-30 04:41:00,63.7,57.6,0.00,East,92,0.2,2.4,80,0.00,,,0.00,WUHU216CR1000,2013-06-30 11:41:00,
2013-06-30 04:46:00,68.7,54.5,0.00,NNW,331,3.0,7.6,61,0.00,,,0.00,WUHU216CR1000,2013-06-30 11:46:00,
2013-06-30 04:51:00,68.7,54.5,0.00,NNW,331,3.0,7.6,61,0.00,,,0.00,WUHU216CR1000,2013-06-30 11:51:00,
2013-06-30 04:56:00,68.7,54.5,0.00,NNW,331,3.0,7.6,61,0.00,,,0.00,WUHU216CR1000,2013-06-30 11:56:00,
2013-06-30 05:01:00,71.4,54.0,0.00,NNW,337,3.0,8.3,54,0.00,,,0.00,WUHU216CR1000,2013-06-30 12:01:00,
2013-06-30 05:06:00,71.4,54.0,0.00,NNW,337,3.0,8.3,54,0.00,,,0.00,WUHU216CR1000,2013-06-30 12:06:00,
2013-06-30 05:11:00,71.4,54.0,0.00,NNW,337,3.0,8.3,54,0.00,,,0.00,WUHU216CR1000,2013-06-30 12:11:00,
2013-06-30 05:16:00,70.9,54.0,0.00,NW,306,2.9,8.3,55,0.00,,,0.00,WUHU216CR1000,2013-06-30 12:16:00,
2013-06-30 05:21:00,70.9,54.0,0.00,NW,306,2.9,6.5,55,0.00,,,0.00,WUHU216CR1000,2013-06-30 12:21:00,
2013-06-30 05:26:00,70.9,54.0,0.00,NW,306,2.9,6.5,55,0.00,,,0.00,WUHU216CR1000,2013-06-30 12:26:00,
2013-06-30 05:31:00,70.7,54.0,0.00,NW,305,3.3,6.5,56,0.00,,,0.00,WUHU216CR1000,2013-06-30 12:31:00,
2013-06-30 05:36:00,70.7,54.0,0.00,NW,305,3.3,6.5,56,0.00,,,0.00,WUHU216CR1000,2013-06-30 12:36:00,
2013-06-30 05:41:00,70.7,54.0,0.00,NW,305,3.3,6.5,56,0.00,,,0.00,WUHU216CR1000,2013-06-30 12:41:00,
2013-06-30 05:46:00,70.6,53.9,0.00,NW,315,3.0,6.5,55,0.00,,,0.00,WUHU216CR1000,2013-06-30 12:46:00,
2013-06-30 05:51:00,70.6,53.9,0.00,NW,315,3.0,6.5,55,0.00,,,0.00,WUHU216CR1000,2013-06-30 12:51:00,
2013-06-30 05:56:00,70.6,53.9,0.00,NW,315,3.0,6.5,55,0.00,,,0.00,WUHU216CR1000,2013-06-30 12:56:00,
2013-06-30 06:01:00,70.5,54.0,0.00,NW,313,2.6,6.5,56,0.00,,,0.00,WUHU216CR1000,2013-06-30 13:01:00,
2013-06-30 06:06:00,70.5,54.0,0.00,NW,313,2.6,5.9,56,0.00,,,0.00,WUHU216CR1000,2013-06-30 13:06:00,
2013-06-30 06:11:00,70.5,54.0,0.00,NW,313,2.6,5.9,56,0.00,,,0.00,WUHU216CR1000,2013-06-30 13:11:00,
2013-06-30 06:16:00,70.2,54.0,0.00,NNW,331,2.7,6.7,56,0.00,,,0.00,WUHU216CR1000,2013-06-30 13:16:00,
2013-06-30 06:21:00,70.2,54.0,0.00,NNW,331,2.7,6.7,56,0.00,,,0.00,WUHU216CR1000,2013-06-30 13:21:00,
2013-06-30 06:26:00,70.2,54.0,0.00,NNW,331,2.7,6.7,56,0.00,,,0.00,WUHU216CR1000,2013-06-30 13:26:00,
2013-06-30 06:31:00,70.4,54.0,0.00,NNW,340,2.6,7.7,56,0.00,,,0.00,WUHU216CR1000,2013-06-30 13:31:00,
2013-06-30 06:36:00,70.4,54.0,0.00,NNW,340,2.6,7.7,56,0.00,,,0.00,WUHU216CR1000,2013-06-30 13:36:00,
2013-06-30 06:41:00,70.4,54.0,0.00,NNW,340,2.6,7.7,56,0.00,,,0.00,WUHU216CR1000,2013-06-30 13:41:00,
2013-06-30 06:46:00,71.0,54.5,0.00,North,0,2.8,7.7,56,0.00,,,0.00,WUHU216CR1000,2013-06-30 13:46:00,
2013-06-30 06:51:00,71.0,54.5,0.00,North,0,2.8,5.6,56,0.00,,,0.00,WUHU216CR1000,2013-06-30 13:51:00,
2013-06-30 06:56:00,71.0,54.5,0.00,North,0,2.8,5.6,56,0.00,,,0.00,WUHU216CR1000,2013-06-30 13:56:00,
2013-06-30 07:01:00,71.7,55.0,0.00,North,1,3.1,5.7,56,0.00,,,0.00,WUHU216CR1000,2013-06-30 14:01:00,
2013-06-30 07:06:00,71.7,55.0,0.00,North,1,3.1,5.7,56,0.00,,,0.00,WUHU216CR1000,2013-06-30 14:06:00,
2013-06-30 07:11:00,71.7,55.0,0.00,North,1,3.1,5.7,56,0.00,,,0.00,WUHU216CR1000,2013-06-30 14:11:00,
2013-06-30 07:16:00,73.3,55.9,0.00,NNW,329,2.7,8.4,54,0.00,,,0.00,WUHU216CR1000,2013-06-30 14:16:00,
2013-06-30 07:21:00,73.3,55.9,0.00,NNW,329,2.7,8.4,54,0.00,,,0.00,WUHU216CR1000,2013-06-30 14:21:00,
2013-06-30 07:26:00,73.3,55.9,0.00,NNW,329,2.7,8.4,54,0.00,,,0.00,WUHU216CR1000,2013-06-30 14:26:00,
2013-06-30 07:31:00,75.0,56.6,0.00,NW,312,3.2,8.4,53,0.00,,,0.00,WUHU216CR1000,2013-06-30 14:31:00,
2013-06-30 07:36:00,75.0,56.6,0.00,NW,312,3.2,8.2,53,0.00,,,0.00,WUHU216CR1000,2013-06-30 14:36:00,
2013-06-30 07:41:00,75.0,56.6,0.00,NW,312,3.2,8.2,53,0.00,,,0.00,WUHU216CR1000,2013-06-30 14:41:00,
2013-06-30 07:46:00,76.3,57.3,0.00,NW,308,3.8,9.4,52,0.00,,,0.00,WUHU216CR1000,2013-06-30 14:46:00,
2013-06-30 07:51:00,76.3,57.3,0.00,NW,308,3.8,9.4,52,0.00,,,0.00,WUHU216CR1000,2013-06-30 14:51:00,
2013-06-30 07:56:00,76.3,57.3,0.00,NW,308,3.8,9.4,52,0.00,,,0.00,WUHU216CR1000,2013-06-30 14:56:00,
2013-06-30 08:01:00,77.3,57.5,0.00,NW,310,4.4,9.6,51,0.00,,,0.00,WUHU216CR1000,2013-06-30 15:01:00,
2013-06-30 08:06:00,77.3,57.5,0.00,NW,310,4.4,9.6,51,0.00,,,0.00,WUHU216CR1000,2013-06-30 15:06:00,
2013-06-30 08:11:00,77.3,57.5,0.00,NW,310,4.4,9.6,51,0.00,,,0.00,WUHU216CR1000,2013-06-30 15:11:00,
2013-06-30 08:16:00,78.1,57.8,0.00,NW,311,4.6,9.6,50,0.00,,,0.00,WUHU216CR1000,2013-06-30 15:16:00,
2013-06-30 08:21:00,78.1,57.8,0.00,NW,311,4.6,9.4,50,0.00,,,0.00,WUHU216CR1000,2013-06-30 15:21:00,
2013-06-30 08:26:00,78.1,57.8,0.00,NW,311,4.6,9.4,50,0.00,,,0.00,WUHU216CR1000,2013-06-30 15:26:00,
2013-06-30 08:31:00,79.4,58.1,0.00,NW,307,4.6,10.1,48,0.00,,,0.00,WUHU216CR1000,2013-06-30 15:31:00,
2013-06-30 08:36:00,79.4,58.1,0.00,NW,307,4.6,10.1,48,0.00,,,0.00,WUHU216CR1000,2013-06-30 15:36:00,
2013-06-30 08:41:00,79.4,58.1,0.00,NW,307,4.6,10.1,48,0.00,,,0.00,WUHU216CR1000,2013-06-30 15:41:00,
2013-06-30 08:46:00,80.5,58.3,0.00,NW,317,4.0,10.6,47,0.00,,,0.00,WUHU216CR1000,2013-06-30 15:46:00,
2013-06-30 08:51:00,80.5,58.3,0.00,NW,317,4.0,10.6,47,0.00,,,0.00,WUHU216CR1000,2013-06-30 15:51:00,
2013-06-30 08:56:00,80.5,58.3,0.00,NW,317,4.0,10.6,47,0.00,,,0.00,WUHU216CR1000,2013-06-30 15:56:00,
2013-06-30 09:01:00,81.6,59.1,0.00,NNW,328,3.1,10.6,46,0.00,,,0.00,WUHU216CR1000,2013-06-30 16:01:00,
2013-06-30 09:06:00,81.6,59.1,0.00,NNW,328,3.1,8.3,46,0.00,,,0.00,WUHU216CR1000,2013-06-30 16:06:00,
2013-06-30 09:11:00,81.6,59.1,0.00,NNW,328,3.1,8.3,46,0.00,,,0.00,WUHU216CR1000,2013-06-30 16:11:00,
2013-06-30 09:16:00,83.3,59.7,0.00,NW,316,2.9,8.3,45,0.00,,,0.00,WUHU216CR1000,2013-06-30 16:16:00,
2013-06-30 09:21:00,83.3,59.7,0.00,NW,316,2.9,7.8,45,0.00,,,0.00,WUHU216CR1000,2013-06-30 16:21:00,
2013-06-30 09:26:00,83.3,59.7,0.00,NW,316,2.9,7.8,45,0.00,,,0.00,WUHU216CR1000,2013-06-30 16:26:00,
2013-06-30 09:31:00,84.0,60.1,0.00,NNW,336,3.5,8.6,44,0.00,,,0.00,WUHU216CR1000,2013-06-30 16:31:00,
2013-06-30 09:36:00,84.0,60.1,0.00,NNW,336,3.5,8.6,44,0.00,,,0.00,WUHU216CR1000,2013-06-30 16:36:00,
2013-06-30 09:41:00,84.0,60.1,0.00,NNW,336,3.5,8.6,44,0.00,,,0.00,WUHU216CR1000,2013-06-30 16:41:00,
2013-06-30 09:46:00,85.6,59.9,0.00,NW,326,3.0,8.6,42,0.00,,,0.00,WUHU216CR1000,2013-06-30 16:46:00,
2013-06-30 09:51:00,85.6,59.9,0.00,NW,326,3.0,6.2,42,0.00,,,0.00,WUHU216CR1000,2013-06-30 16:51:00,
2013-06-30 09:56:00,85.6,59.9,0.00,NW,326,3.0,6.2,42,0.00,,,0.00,WUHU216CR1000,2013-06-30 16:56:00,
2013-06-30 10:01:00,87.1,60.0,0.00,NW,317,2.9,6.8,40,0.00,,,0.00,WUHU216CR1000,2013-06-30 17:01:00,
2013-06-30 10:06:00,87.1,60.0,0.00,NW,317,2.9,6.8,40,0.00,,,0.00,WUHU216CR1000,2013-06-30 17:06:00,
2013-06-30 10:11:00,87.1,60.0,0.00,NW,317,2.9,6.8,40,0.00,,,0.00,WUHU216CR1000,2013-06-30 17:11:00,
2013-06-30 10:16:00,88.3,59.8,0.00,NW,326,3.1,7.5,38,0.00,,,0.00,WUHU216CR1000,2013-06-30 17:16:00,
2013-06-30 10:21:00,88.3,59.8,0.00,NW,326,3.1,7.5,38,0.00,,,0.00,WUHU216CR1000,2013-06-30 17:21:00,
2013-06-30 10:26:00,88.3,59.8,0.00,NW,326,3.1,7.5,38,0.00,,,0.00,WUHU216CR1000,2013-06-30 17:26:00,
2013-06-30 10:31:00,89.2,59.3,0.00,NNW,328,3.6,9.1,37,0.00,,,0.00,WUHU216CR1000,2013-06-30 17:31:00,
2013-06-30 10:36:00,89.2,59.3,0.00,NNW,328,3.6,9.1,37,0.00,,,0.00,WUHU216CR1000,2013-06-30 17:36:00,
2013-06-30 10:41:00,89.2,59.3,0.00,NNW,328,3.6,9.1,37,0.00,,,0.00,WUHU216CR1000,2013-06-30 17:41:00,
2013-06-30 10:46:00,90.5,59.2,0.00,NNW,328,3.5,9.5,35,0.00,,,0.00,WUHU216CR1000,2013-06-30 17:46:00,
2013-06-30 10:51:00,90.5,59.2,0.00,NNW,328,3.5,9.5,35,0.00,,,0.00,WUHU216CR1000,2013-06-30 17:51:00,
2013-06-30 10:56:00,90.5,59.2,0.00,NNW,328,3.5,9.5,35,0.00,,,0.00,WUHU216CR1000,2013-06-30 17:56:00,
2013-06-30 11:01:00,91.6,58.6,0.00,NW,325,3.4,9.5,33,0.00,,,0.00,WUHU216CR1000,2013-06-30 18:01:00,
2013-06-30 11:06:00,91.6,58.6,0.00,NW,325,3.4,7.6,33,0.00,,,0.00,WUHU216CR1000,2013-06-30 18:06:00,
2013-06-30 11:11:00,91.6,58.6,0.00,NW,325,3.4,7.6,33,0.00,,,0.00,WUHU216CR1000,2013-06-30 18:11:00,
2013-06-30 11:16:00,92.2,58.6,0.00,NW,325,2.9,8.9,33,0.00,,,0.00,WUHU216CR1000,2013-06-30 18:16:00,
2013-06-30 11:21:00,92.2,58.6,0.00,NW,325,2.9,8.9,33,0.00,,,0.00,WUHU216CR1000,2013-06-30 18:21:00,
2013-06-30 11:26:00,92.2,58.6,0.00,NW,325,2.9,8.9,33,0.00,,,0.00,WUHU216CR1000,2013-06-30 18:26:00,
2013-06-30 11:31:00,93.3,58.9,0.00,NNW,334,3.1,8.9,32,0.00,,,0.00,WUHU216CR1000,2013-06-30 18:31:00,
2013-06-30 11:36:00,93.3,58.9,0.00,NNW,334,3.1,7.7,32,0.00,,,0.00,WUHU216CR1000,2013-06-30 18:36:00,
2013-06-30 11:41:00,93.3,58.9,0.00,NNW,334,3.1,7.7,32,0.00,,,0.00,WUHU216CR1000,2013-06-30 18:41:00,
2013-06-30 11:46:00,94.4,58.9,0.00,NW,305,2.5,7.7,31,0.00,,,0.00,WUHU216CR1000,2013-06-30 18:46:00,
2013-06-30 11:51:00,94.4,58.9,0.00,NW,305,2.5,6.6,31,0.00,,,0.00,WUHU216CR1000,2013-06-30 18:51:00,
2013-06-30 11:56:00,94.4,58.9,0.00,NW,305,2.5,6.6,31,0.00,,,0.00,WUHU216CR1000,2013-06-30 18:56:00,
2013-06-30 12:01:00,95.2,58.9,0.00,NW,318,2.0,6.7,30,0.00,,,0.00,WUHU216CR1000,2013-06-30 19:01:00,
2013-06-30 12:06:00,95.2,58.9,0.00,NW,318,2.0,6.7,30,0.00,,,0.00,WUHU216CR1000,2013-06-30 19:06:00,
2013-06-30 12:11:00,95.2,58.9,0.00,NW,318,2.0,6.7,30,0.00,,,0.00,WUHU216CR1000,2013-06-30 19:11:00,
2013-06-30 12:16:00,94.5,62.5,0.00,SE,143,2.7,6.7,35,0.00,,,0.00,WUHU216CR1000,2013-06-30 19:16:00,
2013-06-30 12:21:00,94.5,62.5,0.00,SE,143,2.7,6.6,35,0.00,,,0.00,WUHU216CR1000,2013-06-30 19:21:00,
2013-06-30 12:26:00,94.5,62.5,0.00,SE,143,2.7,6.6,35,0.00,,,0.00,WUHU216CR1000,2013-06-30 19:26:00,
2013-06-30 12:31:00,94.2,62.8,0.00,SSE,147,3.9,8.3,36,0.00,,,0.00,WUHU216CR1000,2013-06-30 19:31:00,
2013-06-30 12:36:00,94.2,62.8,0.00,SSE,147,3.9,8.3,36,0.00,,,0.00,WUHU216CR1000,2013-06-30 19:36:00,
2013-06-30 12:41:00,94.2,62.8,0.00,SSE,147,3.9,8.3,36,0.00,,,0.00,WUHU216CR1000,2013-06-30 19:41:00,
2013-06-30 12:46:00,95.6,61.5,0.00,SE,124,2.2,8.3,33,0.00,,,0.00,WUHU216CR1000,2013-06-30 19:46:00,
2013-06-30 12:51:00,95.6,61.5,0.00,SE,124,2.2,4.9,33,0.00,,,0.00,WUHU216CR1000,2013-06-30 19:51:00,
2013-06-30 12:56:00,95.6,61.5,0.00,SE,124,2.2,4.9,33,0.00,,,0.00,WUHU216CR1000,2013-06-30 19:56:00,
2013-06-30 13:01:00,96.9,61.1,0.00,ESE,105,2.6,10.3,31,0.00,,,0.00,WUHU216CR1000,2013-06-30 20:01:00,
2013-06-30 13:06:00,96.9,61.1,0.00,ESE,105,2.6,10.3,31,0.00,,,0.00,WUHU216CR1000,2013-06-30 20:06:00,
2013-06-30 13:11:00,96.9,61.1,0.00,ESE,105,2.6,10.3,31,0.00,,,0.00,WUHU216CR1000,2013-06-30 20:11:00,
2013-06-30 13:16:00,96.9,61.8,0.00,SSE,152,3.3,10.3,32,0.00,,,0.00,WUHU216CR1000,2013-06-30 20:16:00,
2013-06-30 13:21:00,96.9,61.8,0.00,SSE,152,3.3,7.2,32,0.00,,,0.00,WUHU216CR1000,2013-06-30 20:21:00,
2013-06-30 13:26:00,96.9,61.8,0.00,SSE,152,3.3,7.2,32,0.00,,,0.00,WUHU216CR1000,2013-06-30 20:26:00,
2013-06-30 13:31:00,97.7,61.2,0.00,SSE,168,2.0,7.2,30,0.00,,,0.00,WUHU216CR1000,2013-06-30 20:31:00,
2013-06-30 13:36:00,97.7,61.2,0.00,SSE,168,2.0,6.0,30,0.00,,,0.00,WUHU216CR1000,2013-06-30 20:36:00,
2013-06-30 13:41:00,97.7,61.2,0.00,SSE,168,2.0,6.0,30,0.00,,,0.00,WUHU216CR1000,2013-06-30 20:41:00,
2013-06-30 13:46:00,98.0,62.1,0.00,SSE,152,3.9,7.8,31,0.00,,,0.00,WUHU216CR1000,2013-06-30 20:46:00,
2013-06-30 13:51:00,98.0,62.1,0.00,SSE,152,3.9,7.8,31,0.00,,,0.00,WUHU216CR1000,2013-06-30 20:51:00,
2013-06-30 13:56:00,98.0,62.1,0.00,SSE,152,3.9,7.8,31,0.00,,,0.00,WUHU216CR1000,2013-06-30 20:56:00,
2013-06-30 14:01:00,98.1,62.3,0.00,SE,142,4.3,9.0,31,0.00,,,0.00,WUHU216CR1000,2013-06-30 21:01:00,
2013-06-30 14:06:00,98.1,62.3,0.00,SE,142,4.3,9.0,31,0.00,,,0.00,WUHU216CR1000,2013-06-30 21:06:00,
2013-06-30 14:11:00,98.1,62.3,0.00,SE,142,4.3,9.0,31,0.00,,,0.00,WUHU216CR1000,2013-06-30 21:11:00,
2013-06-30 14:16:00,98.3,62.4,0.00,SSE,165,3.8,9.0,31,0.00,,,0.00,WUHU216CR1000,2013-06-30 21:16:00,
2013-06-30 14:21:00,98.3,62.4,0.00,SSE,165,3.8,7.1,31,0.00,,,0.00,WUHU216CR1000,2013-06-30 21:21:00,
2013-06-30 14:26:00,98.3,62.4,0.00,SSE,165,3.8,7.1,31,0.00,,,0.00,WUHU216CR1000,2013-06-30 21:26:00,
2013-06-30 14:31:00,98.9,62.0,0.00,SSE,153,3.9,7.9,30,0.00,,,0.00,WUHU216CR1000,2013-06-30 21:31:00,
2013-06-30 14:36:00,98.9,62.0,0.00,SSE,153,3.9,7.9,30,0.00,,,0.00,WUHU216CR1000,2013-06-30 21:36:00,
2013-06-30 14:41:00,98.9,62.0,0.00,SSE,153,3.9,7.9,30,0.00,,,0.00,WUHU216CR1000,2013-06-30 21:41:00,
2013-06-30 14:46:00,99.4,62.2,0.00,SE,132,4.2,8.3,30,0.00,,,0.00,WUHU216CR1000,2013-06-30 21:46:00,
2013-06-30 14:51:00,99.4,62.2,0.00,SE,132,4.2,8.3,30,0.00,,,0.00,WUHU216CR1000,2013-06-30 21:51:00,
2013-06-30 14:56:00,99.4,62.2,0.00,SE,132,4.2,8.3,30,0.00,,,0.00,WUHU216CR1000,2013-06-30 21:56:00,
2013-06-30 15:01:00,99.6,63.1,0.00,SSE,166,3.8,8.8,31,0.00,,,0.00,WUHU216CR1000,2013-06-30 22:01:00,
2013-06-30 15:06:00,99.6,63.1,0.00,SSE,166,3.8,8.8,31,0.00,,,0.00,WUHU216CR1000,2013-06-30 22:06:00,
2013-06-30 15:11:00,99.6,63.1,0.00,SSE,166,3.8,8.8,31,0.00,,,0.00,WUHU216CR1000,2013-06-30 22:11:00,
2013-06-30 15:16:00,100.7,57.7,0.00,East,97,2.4,8.8,25,0.00,,,0.00,WUHU216CR1000,2013-06-30 22:16:00,
2013-06-30 15:21:00,100.7,57.7,0.00,East,97,2.4,6.7,25,0.00,,,0.00,WUHU216CR1000,2013-06-30 22:21:00,
2013-06-30 15:26:00,100.7,57.7,0.00,East,97,2.4,6.7,25,0.00,,,0.00,WUHU216CR1000,2013-06-30 22:26:00,
2013-06-30 15:31:00,102.8,52.3,0.00,NNW,343,4.1,11.0,19,0.00,,,0.00,WUHU216CR1000,2013-06-30 22:31:00,
2013-06-30 15:32:00,102.8,52.3,0.00,NNW,343,4.1,11.0,19,0.00,,,0.00,WUHU216CR1000,2013-06-30 22:32:00,
2013-06-30 15:37:00,102.8,52.3,0.00,NNW,343,4.1,11.0,19,0.00,,,0.00,WUHU216CR1000,2013-06-30 22:37:00,
2013-06-30 15:42:00,102.8,52.3,0.00,NNW,343,4.1,11.0,19,0.00,,,0.00,WUHU216CR1000,2013-06-30 22:42:00,
2013-06-30 15:47:00,103.0,52.7,0.00,NNW,335,3.8,11.0,19,0.00,,,0.00,WUHU216CR1000,2013-06-30 22:47:00,
2013-06-30 15:52:00,103.0,52.7,0.00,NNW,335,3.8,7.9,19,0.00,,,0.00,WUHU216CR1000,2013-06-30 22:52:00,
2013-06-30 15:57:00,103.0,52.7,0.00,NNW,335,3.8,7.9,19,0.00,,,0.00,WUHU216CR1000,2013-06-30 22:57:00,
2013-06-30 16:02:00,103.3,53.2,0.00,NNW,327,4.8,11.0,19,0.00,,,0.00,WUHU216CR1000,2013-06-30 23:02:00,
2013-06-30 16:07:00,103.3,53.2,0.00,NNW,327,4.8,11.0,19,0.00,,,0.00,WUHU216CR1000,2013-06-30 23:07:00,
2013-06-30 16:12:00,103.3,53.2,0.00,NNW,327,4.8,11.0,19,0.00,,,0.00,WUHU216CR1000,2013-06-30 23:12:00,
2013-06-30 16:17:00,103.6,53.3,0.00,NW,311,4.9,11.0,19,0.00,,,0.00,WUHU216CR1000,2013-06-30 23:17:00,
2013-06-30 16:22:00,103.6,53.3,0.00,NW,311,4.9,10.4,19,0.00,,,0.00,WUHU216CR1000,2013-06-30 23:22:00,
2013-06-30 16:27:00,103.6,53.3,0.00,NW,311,4.9,10.4,19,0.00,,,0.00,WUHU216CR1000,2013-06-30 23:27:00,
2013-06-30 16:32:00,103.3,53.3,0.00,NW,311,4.8,11.9,19,0.00,,,0.00,WUHU216CR1000,2013-06-30 23:32:00,
2013-06-30 16:37:00,103.3,53.3,0.00,NW,311,4.8,11.9,19,0.00,,,0.00,WUHU216CR1000,2013-06-30 23:37:00,
2013-06-30 16:42:00,103.3,53.3,0.00,NW,311,4.8,11.9,19,0.00,,,0.00,WUHU216CR1000,2013-06-30 23:42:00,
2013-06-30 16:47:00,103.0,53.4,0.00,WNW,293,6.3,13.7,19,0.00,,,0.00,WUHU216CR1000,2013-06-30 23:47:00,
2013-06-30 16:52:00,103.0,53.4,0.00,WNW,293,6.3,13.7,19,0.00,,,0.00,WUHU216CR1000,2013-06-30 23:52:00,
2013-06-30 16:57:00,103.0,53.4,0.00,WNW,293,6.3,13.7,19,0.00,,,0.00,WUHU216CR1000,2013-06-30 23:57:00,
2013-06-30 17:02:00,102.3,53.8,0.00,WNW,302,5.9,13.7,20,0.00,,,0.00,WUHU216CR1000,2013-07-01 00:02:00,
2013-06-30 17:07:00,102.3,53.8,0.00,WNW,302,5.9,12.9,20,0.00,,,0.00,WUHU216CR1000,2013-07-01 00:07:00,
2013-06-30 17:12:00,102.3,53.8,0.00,WNW,302,5.9,12.9,20,0.00,,,0.00,WUHU216CR1000,2013-07-01 00:12:00,
2013-06-30 17:17:00,101.9,53.3,0.00,NW,305,5.7,12.9,20,0.00,,,0.00,WUHU216CR1000,2013-07-01 00:17:00,
2013-06-30 17:22:00,101.9,53.3,0.00,NW,305,5.7,12.9,20,0.00,,,0.00,WUHU216CR1000,2013-07-01 00:22:00,
2013-06-30 17:27:00,101.9,53.3,0.00,NW,305,5.7,12.9,20,0.00,,,0.00,WUHU216CR1000,2013-07-01 00:27:00,
2013-06-30 17:32:00,101.4,51.7,0.00,WNW,296,6.2,12.9,19,0.00,,,0.00,WUHU216CR1000,2013-07-01 00:32:00,
2013-06-30 17:37:00,101.4,51.7,0.00,WNW,296,6.2,12.8,19,0.00,,,0.00,WUHU216CR1000,2013-07-01 00:37:00,
2013-06-30 17:42:00,101.4,51.7,0.00,WNW,296,6.2,12.8,19,0.00,,,0.00,WUHU216CR1000,2013-07-01 00:42:00,
2013-06-30 17:47:00,100.9,51.2,0.00,WNW,296,5.7,12.8,19,0.00,,,0.00,WUHU216CR1000,2013-07-01 00:47:00,
2013-06-30 17:52:00,100.9,51.2,0.00,WNW,296,5.7,11.3,19,0.00,,,0.00,WUHU216CR1000,2013-07-01 00:52:00,
2013-06-30 17:57:00,100.9,51.2,0.00,WNW,296,5.7,11.3,19,0.00,,,0.00,WUHU216CR1000,2013-07-01 00:57:00,
2013-06-30 18:02:00,99.8,51.9,0.00,WNW,291,6.7,13.2,20,0.00,,,0.00,WUHU216CR1000,2013-07-01 01:02:00,
2013-06-30 18:07:00,99.8,51.9,0.00,WNW,291,6.7,13.2,20,0.00,,,0.00,WUHU216CR1000,2013-07-01 01:07:00,
2013-06-30 18:12:00,99.8,51.9,0.00,WNW,291,6.7,13.2,20,0.00,,,0.00,WUHU216CR1000,2013-07-01 01:12:00,
2013-06-30 18:17:00,99.3,52.6,0.00,WNW,297,5.7,13.7,21,0.00,,,0.00,WUHU216CR1000,2013-07-01 01:17:00,
2013-06-30 18:22:00,99.3,52.6,0.00,WNW,297,5.7,13.7,21,0.00,,,0.00,WUHU216CR1000,2013-07-01 01:22:00,
2013-06-30 18:27:00,99.3,52.6,0.00,WNW,297,5.7,13.7,21,0.00,,,0.00,WUHU216CR1000,2013-07-01 01:27:00,
2013-06-30 18:32:00,98.4,52.8,0.00,WNW,299,5.4,13.7,22,0.00,,,0.00,WUHU216CR1000,2013-07-01 01:32:00,
2013-06-30 18:37:00,98.4,52.8,0.00,WNW,299,5.4,12.1,22,0.00,,,0.00,WUHU216CR1000,2013-07-01 01:37:00,
2013-06-30 18:42:00,98.4,52.8,0.00,WNW,299,5.4,12.1,22,0.00,,,0.00,WUHU216CR1000,2013-07-01 01:42:00,
2013-06-30 18:47:00,97.3,52.5,0.00,WNW,301,5.7,12.1,22,0.00,,,0.00,WUHU216CR1000,2013-07-01 01:47:00,
2013-06-30 18:52:00,97.3,52.5,0.00,WNW,301,5.7,11.3,22,0.00,,,0.00,WUHU216CR1000,2013-07-01 01:52:00,
2013-06-30 18:57:00,97.3,52.5,0.00,WNW,301,5.7,11.3,22,0.00,,,0.00,WUHU216CR1000,2013-07-01 01:57:00,
2013-06-30 19:02:00,95.8,52.6,0.00,WNW,300,4.8,12.3,24,0.00,,,0.00,WUHU216CR1000,2013-07-01 02:02:00,
2013-06-30 19:07:00,95.8,52.6,0.00,WNW,300,4.8,12.3,24,0.00,,,0.00,WUHU216CR1000,2013-07-01 02:07:00,
2013-06-30 19:12:00,95.8,52.6,0.00,WNW,300,4.8,12.3,24,0.00,,,0.00,WUHU216CR1000,2013-07-01 02:12:00,
2013-06-30 19:17:00,94.5,52.9,0.00,NW,305,4.9,12.3,25,0.00,,,0.00,WUHU216CR1000,2013-07-01 02:17:00,
2013-06-30 19:22:00,94.5,52.9,0.00,NW,305,4.9,11.3,25,0.00,,,0.00,WUHU216CR1000,2013-07-01 02:22:00,
2013-06-30 19:27:00,94.5,52.9,0.00,NW,305,4.9,11.3,25,0.00,,,0.00,WUHU216CR1000,2013-07-01 02:27:00,
2013-06-30 19:32:00,93.4,54.3,0.00,WNW,300,3.5,11.3,27,0.00,,,0.00,WUHU216CR1000,2013-07-01 02:32:00,
2013-06-30 19:37:00,93.4,54.3,0.00,WNW,300,3.5,7.5,27,0.00,,,0.00,WUHU216CR1000,2013-07-01 02:37:00,
2013-06-30 19:42:00,93.4,54.3,0.00,WNW,300,3.5,7.5,27,0.00,,,0.00,WUHU216CR1000,2013-07-01 02:42:00,
2013-06-30 19:47:00,92.4,54.4,0.00,WNW,286,5.2,10.4,28,0.00,,,0.00,WUHU216CR1000,2013-07-01 02:47:00,
2013-06-30 19:52:00,92.4,54.4,0.00,WNW,286,5.2,10.4,28,0.00,,,0.00,WUHU216CR1000,2013-07-01 02:52:00,
2013-06-30 19:57:00,92.4,54.4,0.00,WNW,286,5.2,10.4,28,0.00,,,0.00,WUHU216CR1000,2013-07-01 02:57:00,
2013-06-30 20:02:00,91.0,54.8,0.00,WNW,289,4.9,10.9,30,0.00,,,0.00,WUHU216CR1000,2013-07-01 03:02:00,
2013-06-30 20:07:00,91.0,54.8,0.00,WNW,289,4.9,10.9,30,0.00,,,0.00,WUHU216CR1000,2013-07-01 03:07:00,
2013-06-30 20:12:00,91.0,54.8,0.00,WNW,289,4.9,10.9,30,0.00,,,0.00,WUHU216CR1000,2013-07-01 03:12:00,
2013-06-30 20:17:00,88.6,55.8,0.00,NW,326,2.7,10.9,33,0.00,,,0.00,WUHU216CR1000,2013-07-01 03:17:00,
2013-06-30 20:22:00,88.6,55.8,0.00,NW,326,2.7,8.1,33,0.00,,,0.00,WUHU216CR1000,2013-07-01 03:22:00,
2013-06-30 20:27:00,88.6,55.8,0.00,NW,326,2.7,8.1,33,0.00,,,0.00,WUHU216CR1000,2013-07-01 03:27:00,
2013-06-30 20:32:00,86.3,56.4,0.00,NNW,338,2.2,8.1,36,0.00,,,0.00,WUHU216CR1000,2013-07-01 03:32:00,
2013-06-30 20:37:00,86.3,56.4,0.00,NNW,338,2.2,5.5,36,0.00,,,0.00,WUHU216CR1000,2013-07-01 03:37:00,
2013-06-30 20:42:00,86.3,56.4,0.00,NNW,338,2.2,5.5,36,0.00,,,0.00,WUHU216CR1000,2013-07-01 03:42:00,
2013-06-30 20:47:00,84.6,56.8,0.00,NW,322,1.8,5.5,39,0.00,,,0.00,WUHU216CR1000,2013-07-01 03:47:00,
2013-06-30 20:52:00,84.6,56.8,0.00,NW,322,1.8,4.5,39,0.00,,,0.00,WUHU216CR1000,2013-07-01 03:52:00,
2013-06-30 20:57:00,84.6,56.8,0.00,NW,322,1.8,4.5,39,0.00,,,0.00,WUHU216CR1000,2013-07-01 03:57:00,
2013-06-30 21:01:00,84.6,56.8,0.00,NW,322,1.8,4.5,39,0.00,,,0.00,WUHU216CR1000,2013-07-01 04:01:00,
2013-06-30 21:06:00,83.4,56.8,0.00,NNW,327,2.5,6.6,40,0.00,,,0.00,WUHU216CR1000,2013-07-01 04:06:00,
2013-06-30 21:11:00,83.4,56.8,0.00,NNW,327,2.5,6.6,40,0.00,,,0.00,WUHU216CR1000,2013-07-01 04:11:00,
2013-06-30 21:16:00,82.8,56.8,0.00,NW,307,3.3,7.6,41,0.00,,,0.00,WUHU216CR1000,2013-07-01 04:16:00,
2013-06-30 21:21:00,82.8,56.8,0.00,NW,307,3.3,7.6,41,0.00,,,0.00,WUHU216CR1000,2013-07-01 04:21:00,
2013-06-30 21:26:00,82.8,56.8,0.00,NW,307,3.3,7.6,41,0.00,,,0.00,WUHU216CR1000,2013-07-01 04:26:00,
2013-06-30 21:31:00,81.9,56.7,0.00,WNW,301,4.3,8.4,42,0.00,,,0.00,WUHU216CR1000,2013-07-01 04:31:00,
2013-06-30 21:36:00,81.9,56.7,0.00,WNW,301,4.3,8.4,42,0.00,,,0.00,WUHU216CR1000,2013-07-01 04:36:00,
2013-06-30 21:41:00,81.9,56.7,0.00,WNW,301,4.3,8.4,42,0.00,,,0.00,WUHU216CR1000,2013-07-01 04:41:00,
2013-06-30 21:46:00,81.0,56.4,0.00,WNW,297,3.6,8.4,43,0.00,,,0.00,WUHU216CR1000,2013-07-01 04:46:00,
2013-06-30 21:51:00,81.0,56.4,0.00,WNW,297,3.6,7.6,43,0.00,,,0.00,WUHU216CR1000,2013-07-01 04:51:00,
2013-06-30 21:56:00,81.0,56.4,0.00,WNW,297,3.6,7.6,43,0.00,,,0.00,WUHU216CR1000,2013-07-01 04:56:00,
2013-06-30 22:01:00,79.9,56.3,0.00,WNW,293,3.9,7.6,44,0.00,,,0.00,WUHU216CR1000,2013-07-01 05:01:00,
2013-06-30 22:06:00,79.9,56.3,0.00,WNW,293,3.9,6.6,44,0.00,,,0.00,WUHU216CR1000,2013-07-01 05:06:00,
2013-06-30 22:11:00,79.9,56.3,0.00,WNW,293,3.9,6.6,44,0.00,,,0.00,WUHU216CR1000,2013-07-01 05:11:00,
2013-06-30 22:16:00,78.7,56.4,0.00,WNW,287,4.4,7.1,46,0.00,,,0.00,WUHU216CR1000,2013-07-01 05:16:00,
2013-06-30 22:21:00,78.7,56.4,0.00,WNW,287,4.4,7.1,46,0.00,,,0.00,WUHU216CR1000,2013-07-01 05:21:00,
2013-06-30 22:26:00,78.7,56.4,0.00,WNW,287,4.4,7.1,46,0.00,,,0.00,WUHU216CR1000,2013-07-01 05:26:00,
2013-06-30 22:31:00,77.7,56.3,0.00,WNW,285,5.5,8.6,48,0.00,,,0.00,WUHU216CR1000,2013-07-01 05:31:00,
2013-06-30 22:36:00,77.7,56.3,0.00,WNW,285,5.5,8.6,48,0.00,,,0.00,WUHU216CR1000,2013-07-01 05:36:00,
2013-06-30 22:41:00,77.7,56.3,0.00,WNW,285,5.5,8.6,48,0.00,,,0.00,WUHU216CR1000,2013-07-01 05:41:00,
2013-06-30 22:46:00,77.6,56.0,0.00,WNW,285,5.8,10.1,47,0.00,,,0.00,WUHU216CR1000,2013-07-01 05:46:00,
2013-06-30 22:51:00,77.6,56.0,0.00,WNW,285,5.8,10.1,47,0.00,,,0.00,WUHU216CR1000,2013-07-01 05:51:00,
2013-06-30 22:56:00,77.6,56.0,0.00,WNW,285,5.8,10.1,47,0.00,,,0.00,WUHU216CR1000,2013-07-01 05:56:00,
2013-06-30 23:01:00,77.3,55.9,0.00,WNW,289,5.3,10.1,48,0.00,,,0.00,WUHU216CR1000,2013-07-01 06:01:00,
2013-06-30 23:06:00,77.3,55.9,0.00,WNW,289,5.3,8.4,48,0.00,,,0.00,WUHU216CR1000,2013-07-01 06:06:00,
2013-06-30 23:11:00,77.3,55.9,0.00,WNW,289,5.3,8.4,48,0.00,,,0.00,WUHU216CR1000,2013-07-01 06:11:00,
2013-06-30 23:16:00,76.7,55.7,0.00,WNW,292,4.4,8.4,48,0.00,,,0.00,WUHU216CR1000,2013-07-01 06:16:00,
2013-06-30 23:21:00,76.7,55.7,0.00,WNW,292,4.4,8.4,48,0.00,,,0.00,WUHU216CR1000,2013-07-01 06:21:00,
2013-06-30 23:26:00,76.7,55.7,0.00,WNW,292,4.4,7.7,48,0.00,,,0.00,WUHU216CR1000,2013-07-01 06:26:00,
2013-06-30 23:31:00,76.7,55.7,0.00,WNW,292,4.4,7.7,48,0.00,,,0.00,WUHU216CR1000,2013-07-01 06:31:00,
2013-06-30 23:36:00,75.7,55.6,0.00,WNW,301,2.7,6.1,50,0.00,,,0.00,WUHU216CR1000,2013-07-01 06:36:00,
2013-06-30 23:41:00,75.7,55.6,0.00,WNW,301,2.7,6.1,50,0.00,,,0.00,WUHU216CR1000,2013-07-01 06:41:00,
2013-06-30 23:46:00,75.7,55.6,0.00,WNW,301,2.7,6.1,50,0.00,,,0.00,WUHU216CR1000,2013-07-01 06:46:00,
2013-06-30 23:51:00,74.2,56.1,0.00,SE,132,1.8,6.1,53,0.00,,,0.00,WUHU216CR1000,2013-07-01 06:51:00,
2013-06-30 23:56:00,74.2,56.1,0.00,SE,132,1.8,5.0,53,0.00,,,0.00,WUHU216CR1000,2013-07-01 06:56:00,